User: anonymous   Login
Location: Gälforsberget
(66.6500°N, 22.4167°E)
Time: 01:59:21
(UTC+00:00)
Language:

Cosmos 1812 - Orbit

View from above orbital plane
View from above orbital plane
View from above satellite
View from above satellite

Ground track
Ground track

The orbit is defined by the following mean orbital elements,

1 17295U          26065.13056456 +.00000000 +00000-0 +14059-3 0 00008
2 17295  82.4628 199.5909 0011771 272.0058  87.9898 16.49575463    08
Epoch (UTC): 06 March 2026 03:08:00
Eccentricity: 0.0011771
inclination: 82.4628°
perigee height: 133 km
apogee height: 148 km
right ascension of ascending node: 199.5909°
argument of perigee: 272.0058°
revolutions per day: 16.49575463
mean anomaly at epoch: 87.9898°

The dashed part of the orbit path shows where the satellite is in the earth's shadow,  

DLR